LTB5 (KAYSERİ/SOĞANLI) TANITMALI BÖLGE

  • SEKTÖREL METEOROLOJİK DEĞERLENDİRME

  • SOĞANLI UÇULMAZ

Meteorolojik şartların belirlenen saat aralığında uçuş için uygun olmadığı değerlendirilmiştir.

  • GÜNCELLEME TARİHİ ve SAATİ :

  • 23.04.2024 - 06:26

  • GEÇERLİ TARİH ve SAATLER :

  • 23.04.2024 - 06:30 - 16:25

Büyük Harita İçin Tıklayınız

Sıcaklık
Basınç
Gün Doğum Saati
Gün Batım Saati
Bu bölümde yer alan bildirim meteorolojik veriler doğrultusunda ilgili gün ve zaman aralığında planlanan uçuşlara dair bağlayıcı niteliktedir. Kırmızı ve Sarı bayrak durumlarında kalkış uygunluğu verilmeyecektir. Yeşil bayrak durumunda nihai uçma kararı pilot ve işletme sorumluluğundadır
Kırmızı ve/veya sarı bayrağın ilan edildiği durumlarda yalnızca öğretmen pilot ile beraber yapılacak eğitim uçuşları (çift kumanda) için SHGM yetkilileri ile irtibata geçilerek eğitim uçuşları gerçekleştirilebilecektir.

METAR

LTAZ 230420Z 11008KT 9999 FEW040 BKN180 11/01 Q1023 RMK RWY29 15006KT

TAFF

TAF LTAZ 222240Z 2300/2324 13008KT CAVOK BECMG 2305/2308 FEW040 BKN180 BECMG 2309/2312 27010KT BECMG 2314/2317 13008KT CAVOK

METAR - TAF bilgileri Aviation Weather Center'dan alınmaktadır.

AIRGRAM

Göreme Airgramı, Meteoroloji Genel Müdürlüğü'nden alınmaktadır.

Meteorolojik veriler sitede bilgilendirme amacıyla yer almaktadır.